Overview Statistics Trail Chart Weather Telemetry Raw packets
 

This is the latest recevied weather packets stored in our database for station/object KI4NG. If no packets are shown the sender has not sent any weather packets the latest 10 day(s).

<< 14 15 16 17 18 19 20 >>
Time Temp. Humidity Pressure Rain* Wind** Luminosity Snow
1788525652 23.33° C 95% 1020.2 hPa 0 mm - 68 W/m² -
1788525346 22.78° C 96% 1020 hPa 0 mm - 52 W/m² -
1788525042 22.78° C 97% 1020.2 hPa 0 mm - 52 W/m² -
1788524742 22.22° C 99% 1020 hPa 0 mm - 47 W/m² -
1788524437 22.22° C 99% 1019.8 hPa 0 mm - 39 W/m² -
1788524132 21.67° C 99% 1019.7 hPa 0 mm - 37 W/m² -
1788523828 21.67° C 99% 1019.9 hPa 0 mm - 33 W/m² -
1788523524 21.67° C 99% 1019.8 hPa 0 mm - 31 W/m² -
1788523220 21.67° C 99% 1019.6 hPa 0 mm - 28 W/m² -
1788522915 21.67° C 99% 1019.6 hPa 0 mm - 26 W/m² -
1788522609 21.67° C 99% 1019.5 hPa 0 mm - 23 W/m² -
1788522304 21.11° C 99% 1019.2 hPa 0 mm - 20 W/m² -
1788521999 21.11° C 99% 1019.5 hPa 0 mm - 17 W/m² -
1788521698 21.11° C 99% 1019.5 hPa 0 mm - 14 W/m² -
1788521397 21.11° C 99% 1019.4 hPa 0 mm - 11 W/m² -
1788521094 21.11° C 99% 1019.6 hPa 0 mm - 7 W/m² -
1788520789 21.11° C 99% 1019.3 hPa 0 mm - 5 W/m² -
1788520485 21.11° C 99% 1019.5 hPa 0 mm - 2 W/m² -
1788520180 21.11° C 99% 1019.1 hPa 0 mm - 0 W/m² -
1788519879 21.67° C 99% 1019.2 hPa 0 mm - 0 W/m² -
1788519574 21.67° C 99% 1019.1 hPa 0 mm - 0 W/m² -
1788519270 21.67° C 99% 1019.1 hPa 0 mm - 0 W/m² -
1788518965 21.67° C 99% 1018.9 hPa 0 mm - 0 W/m² -
1788518664 21.67° C 99% 1019 hPa 0 mm - 0 W/m² -
1788518361 21.67° C 99% 1018.9 hPa 0 mm - 0 W/m² -

* Rain latest hour (hover to see other rain measurements)
** Current wind speed in m/s (hover to see current wind gust speed)